Location: Gugi
(45.4667°N, 11.1000°E)
Time: 00:49:58
(UTC+00:00)

Cosmos 158 Rocket - Pass Details

Date: 17 November 2019
Orbit: 699 x 793 km, 74.0° (Epoch: 07 December)

Event Time Altitude Azimuth Distance (km) Brightness Sun altitude
Rises 17:21:50 0° 182° (S) 3,259 7.4 -17.1°
Reaches altitude 10° 17:24:19 10° 176° (S) 2,325 6.6 -17.5°
Maximum altitude 17:29:20 46° 105° (ESE) 1,027 4.2 -18.4°
Enters shadow 17:31:19 31° 54° (NE) 1,313 4.7 -18.7°
